Weather History for KSDA - January, 2012

Change the Weather History Date:

Saturday, January 21, 2012

  Actual Average Record
Temperature  
Mean Temperature 15 °F -  
Max Temperature 24 °F 34 °F 60 °F (1964)
Min Temperature 6 °F 16 °F -14 °F (1970)
Degree Days  
Heating Degree Days 50    
Moisture  
Dew Point 9 °F    
Average Humidity 72    
Maximum Humidity 79    
Minimum Humidity 67    
Precipitation  
Precipitation 0.00 in - - ()
Sea Level Pressure  
Sea Level Pressure 30.09 in    
Wind  
Wind Speed 8 mph (ESE)    
Max Wind Speed 16 mph    
Max Gust Speed 21 mph    
Visibility 9 miles    
Events Snow    
Averages and records for this station are not official NWS values.
T = Trace of Precipitation, MM = Missing Value Source: NWS Daily Summary

Daily Weather History Graph

Daily Weather History Graph

Search for Another Location

Airport or City:

Trip Planner

Search our weather history database for the weather conditions in past years. The results will help you decide how hot, cold, wet, or windy it might be!

Date:

Astronomy

Jan. 21, 2012 Rise Set
Actual Time 7:40 AM CST 5:25 PM CST
Civil Twilight 7:11 AM CST 5:55 PM CST
Nautical Twilight 6:37 AM CST 6:28 PM CST
Astronomical Twilight 6:05 AM CST 7:01 PM CST
Moon 6:12 AM CST (1/21) 4:02 PM CST (1/21)
Length of Visible Light 10h 44m
Length of Day
9h 44m
Waning Crescent, 3% of the Moon is Illuminated
Jan 21
Waning Crescent
Jan 23
New
Jan 30
First Quarter
Feb 7
Full
Feb 14
Last Quarter

Hourly Weather History & Observations

Time (CST) Temp. Windchill Dew Point Humidity Pressure Visibility Wind Dir Wind Speed Gust Speed Precip Events Conditions
12:15 AM 12.2 °F 0.7 °F 3.2 °F 67% 30.23 in 10.0 mi North 8.1 mph - N/A   Overcast
12:35 AM 12.2 °F -1.0 °F 3.2 °F 67% 30.22 in 10.0 mi North 10.4 mph - N/A   Overcast
12:55 AM 12.2 °F 1.7 °F 3.2 °F 67% 30.20 in 10.0 mi NNE 6.9 mph - N/A   Overcast
1:15 AM 12.2 °F 2.9 °F 3.2 °F 67% 30.20 in 10.0 mi North 5.8 mph - N/A   Overcast
1:35 AM 12.2 °F 0.7 °F 3.2 °F 67% 30.20 in 10.0 mi North 8.1 mph - N/A   Overcast
1:55 AM 12.2 °F 1.7 °F 3.2 °F 67% 30.22 in 10.0 mi North 6.9 mph - N/A   Overcast
2:15 AM 12.2 °F 0.7 °F 3.2 °F 67% 30.21 in 10.0 mi NNE 8.1 mph - N/A   Overcast
2:35 AM 12.2 °F 2.9 °F 3.2 °F 67% 30.22 in 10.0 mi North 5.8 mph - N/A   Overcast
3:15 AM 12.2 °F 0.7 °F 3.2 °F 67% 30.19 in 10.0 mi NNE 8.1 mph - N/A   Overcast
3:35 AM 10.4 °F -0.4 °F 3.2 °F 73% 30.18 in 10.0 mi NNE 6.9 mph - N/A   Mostly Cloudy
3:55 AM 12.2 °F 4.3 °F 3.2 °F 67% 30.19 in 10.0 mi NNE 4.6 mph - N/A   Overcast
4:15 AM 12.2 °F 2.9 °F 5.0 °F 73% 30.20 in 10.0 mi North 5.8 mph - N/A   Overcast
4:35 AM 12.2 °F 1.7 °F 5.0 °F 73% 30.18 in 10.0 mi NE 6.9 mph - N/A   Overcast
4:55 AM 12.2 °F 6.1 °F 5.0 °F 73% 30.17 in 10.0 mi NE 3.5 mph - N/A   Overcast
5:15 AM 12.2 °F 4.3 °F 5.0 °F 73% 30.19 in 10.0 mi NNE 4.6 mph - N/A   Overcast
5:35 AM 12.2 °F 4.3 °F 5.0 °F 73% 30.20 in 10.0 mi NNE 4.6 mph - N/A   Overcast
5:55 AM 12.2 °F - 5.0 °F 73% 30.19 in 10.0 mi Calm Calm - N/A   Overcast
6:15 AM 12.2 °F 6.1 °F 5.0 °F 73% 30.19 in 10.0 mi ENE 3.5 mph - N/A   Overcast
6:35 AM 12.2 °F 6.1 °F 5.0 °F 73% 30.18 in 10.0 mi ENE 3.5 mph - N/A   Overcast
6:55 AM 12.2 °F 6.1 °F 5.0 °F 73% 30.17 in 10.0 mi East 3.5 mph - N/A   Mostly Cloudy
7:15 AM 10.4 °F 4.0 °F 3.2 °F 73% 30.18 in 10.0 mi ESE 3.5 mph - N/A   Mostly Cloudy
7:35 AM 8.6 °F - 3.2 °F 79% 30.18 in 10.0 mi Calm Calm - N/A   Scattered Clouds
7:55 AM 8.6 °F 2.0 °F 1.4 °F 73% 30.18 in 10.0 mi ESE 3.5 mph - N/A   Scattered Clouds
8:15 AM 6.8 °F -0.1 °F 1.4 °F 79% 30.19 in 10.0 mi ESE 3.5 mph - N/A   Scattered Clouds
8:35 AM 8.6 °F - 3.2 °F 79% 30.20 in 7.0 mi Calm Calm - N/A   Mostly Cloudy
8:55 AM 10.4 °F 4.0 °F 5.0 °F 79% 30.19 in 2.5 mi ESE 3.5 mph - N/A Snow Light Snow
9:15 AM 12.2 °F 4.3 °F 5.0 °F 73% 30.18 in 2.5 mi SE 4.6 mph - N/A Snow Light Snow
9:35 AM 12.2 °F 4.3 °F 6.8 °F 79% 30.17 in 3.0 mi SE 4.6 mph - N/A Snow Light Snow
9:55 AM 14.0 °F 6.5 °F 6.8 °F 73% 30.18 in 4.0 mi SSE 4.6 mph - N/A Snow Light Snow
10:15 AM 15.8 °F 6.1 °F 8.6 °F 73% 30.17 in 10.0 mi SE 6.9 mph - N/A Snow Light Snow
10:35 AM 15.8 °F 5.1 °F 8.6 °F 73% 30.16 in 10.0 mi SSE 8.1 mph - N/A   Overcast
10:55 AM 15.8 °F 6.1 °F 10.4 °F 79% 30.16 in 7.0 mi SE 6.9 mph - N/A Snow Light Snow
11:15 AM 17.6 °F 8.2 °F 10.4 °F 73% 30.16 in 10.0 mi SSE 6.9 mph - N/A Snow Light Snow
11:35 AM 17.6 °F 6.4 °F 10.4 °F 73% 30.14 in 10.0 mi SSE 9.2 mph - N/A   Overcast
11:55 AM 17.6 °F 7.3 °F 10.4 °F 73% 30.12 in 10.0 mi SSE 8.1 mph - N/A   Overcast
12:15 PM 17.6 °F 5.0 °F 10.4 °F 73% 30.10 in 10.0 mi SSE 11.5 mph - N/A   Overcast
12:35 PM 19.4 °F 7.9 °F 12.2 °F 74% 30.07 in 10.0 mi SSE 10.4 mph - N/A   Overcast
12:55 PM 19.4 °F 7.9 °F 12.2 °F 74% 30.07 in 10.0 mi SSE 10.4 mph - N/A   Overcast
1:15 PM 21.2 °F 10.9 °F 12.2 °F 68% 30.07 in 10.0 mi SSE 9.2 mph - N/A   Overcast
1:35 PM 21.2 °F 10.9 °F 12.2 °F 68% 30.06 in 10.0 mi SSE 9.2 mph - N/A   Overcast
1:55 PM 21.2 °F 8.9 °F 14.0 °F 74% 30.04 in 10.0 mi SE 12.7 mph - N/A   Overcast
2:15 PM 21.2 °F 9.5 °F 14.0 °F 74% 30.03 in 10.0 mi SSE 11.5 mph - N/A   Overcast
2:35 PM 23.0 °F 10.6 °F 15.8 °F 74% 30.02 in 10.0 mi SSE 13.8 mph 17.3 mph N/A   Overcast
2:55 PM 23.0 °F 11.1 °F 15.8 °F 74% 30.00 in 10.0 mi SSE 12.7 mph 17.3 mph N/A   Overcast
3:15 PM 23.0 °F 10.6 °F 15.8 °F 74% 30.00 in 10.0 mi South 13.8 mph - N/A   Overcast
3:35 PM 24.8 °F 12.9 °F 15.8 °F 69% 29.98 in 10.0 mi SSE 13.8 mph - N/A   Overcast
3:55 PM 24.8 °F 13.4 °F 15.8 °F 69% 29.98 in 10.0 mi SSE 12.7 mph - N/A   Overcast
4:15 PM 24.8 °F 14.0 °F 15.8 °F 69% 29.97 in 10.0 mi SSE 11.5 mph - N/A   Overcast
4:35 PM 24.8 °F 14.0 °F 15.8 °F 69% 29.95 in 10.0 mi SSE 11.5 mph - N/A   Mostly Cloudy
4:55 PM 24.8 °F 12.4 °F 15.8 °F 69% 29.93 in 10.0 mi South 15.0 mph 19.6 mph N/A   Clear
5:15 PM 24.8 °F 14.0 °F 15.8 °F 69% 29.93 in 10.0 mi South 11.5 mph - N/A   Clear
5:35 PM 24.8 °F 12.9 °F 15.8 °F 69% 29.91 in 10.0 mi SSE 13.8 mph - N/A   Scattered Clouds
5:55 PM 24.8 °F 14.0 °F 15.8 °F 69% 29.88 in 10.0 mi SSE 11.5 mph - N/A   Scattered Clouds
6:15 PM 24.8 °F 15.3 °F 15.8 °F 69% 29.87 in 10.0 mi SSE 9.2 mph 18.4 mph N/A   Scattered Clouds
6:35 PM 24.8 °F 14.6 °F 15.8 °F 69% 29.86 in 10.0 mi SSE 10.4 mph 16.1 mph N/A   Scattered Clouds
6:55 PM 24.8 °F 11.9 °F 15.8 °F 69% 29.84 in 10.0 mi SE 16.1 mph 20.7 mph N/A   Clear
7:35 PM 24.8 °F 11.9 °F 17.6 °F 74% 29.83 in 10.0 mi SE 16.1 mph - N/A   Clear
7:55 PM 24.8 °F 13.4 °F 17.6 °F 74% 29.83 in 10.0 mi SSE 12.7 mph 17.3 mph N/A   Scattered Clouds
8:15 PM 24.8 °F 13.4 °F 17.6 °F 74% 29.83 in 10.0 mi SSE 12.7 mph 20.7 mph N/A   Clear
8:35 PM 24.8 °F 11.9 °F 17.6 °F 74% 29.81 in 10.0 mi SSE 16.1 mph 20.7 mph N/A   Clear
9:15 PM 24.8 °F 14.0 °F 17.6 °F 74% 29.82 in 10.0 mi SSE 11.5 mph - N/A   Scattered Clouds
9:35 PM 24.8 °F 12.4 °F 17.6 °F 74% 29.81 in 10.0 mi SSE 15.0 mph 20.7 mph N/A   Mostly Cloudy
9:55 PM 24.8 °F 11.5 °F 17.6 °F 74% 29.80 in 7.0 mi SSE 17.3 mph 21.9 mph N/A   Scattered Clouds
10:15 PM 24.8 °F 13.4 °F 17.6 °F 74% 29.79 in 7.0 mi SSE 12.7 mph 23.0 mph N/A   Mostly Cloudy
10:35 PM 24.8 °F 12.9 °F 17.6 °F 74% 29.79 in 7.0 mi SSE 13.8 mph 18.4 mph N/A   Scattered Clouds
10:55 PM 24.8 °F 12.9 °F 17.6 °F 74% 29.77 in 7.0 mi SSE 13.8 mph - N/A   Clear
11:15 PM 24.8 °F 12.4 °F 17.6 °F 74% 29.75 in 7.0 mi SE 15.0 mph 19.6 mph N/A   Clear
11:35 PM 24.8 °F 12.9 °F 17.6 °F 74% 29.73 in 7.0 mi SE 13.8 mph 23.0 mph N/A   Scattered Clouds